Location: Godzisko
(49.9648°N, 19.4576°E)
Time: 01:47:59
(UTC+00:00)

Sich 1 Rocket - Pass Details

Date: 20 April 2021
Orbit: 617 x 651 km, 82.5° (Epoch: 07 May)

Event Time Altitude Azimuth Distance (km) Brightness Sun altitude
Rises 02:15:40 0° 344° (NNW) 2,977 7.3 -12.7°
Reaches altitude 10° 02:18:01 10° 338° (NNW) 2,065 6.4 -12.4°
Maximum altitude 02:22:20 42° 268° (W) 927 4.1 -11.9°
Drops below altitude 10° 02:26:38 10° 197° (SSW) 2,054 5.8 -11.3°
Enters shadow 02:27:07 - 196° (SSW) 2,236 6.0 -11.2°
